This is the latest recevied weather packets stored in our database for station/object K1TTC. If no packets are shown the sender has not sent any weather packets the latest 10 day(s).
| Time | Temp. | Humidity | Pressure | Rain* | Wind** | Luminosity | Snow |
|---|---|---|---|---|---|---|---|
| 1778027612 | 22.22° C | 40% | 1009.4 hPa | 0 mm | - | 0 W/m² | - |
| 1778027012 | 22.78° C | 39% | 1009.3 hPa | 0 mm | - | 0 W/m² | - |
| 1778026411 | 22.78° C | 38% | 1009.1 hPa | 0 mm | - | 0 W/m² | - |
| 1778025811 | 23.33° C | 38% | 1009 hPa | 0 mm | - | 0 W/m² | - |
| 1778025302 | 23.33° C | 37% | 1008.7 hPa | 0 mm | - | 0 W/m² | - |
| 1778024683 | 23.89° C | 37% | 1008.3 hPa | 0 mm | - | 5 W/m² | - |
| 1778024012 | 23.89° C | 37% | 1008.2 hPa | 0 mm | - | 12 W/m² | - |
| 1778023412 | 24.44° C | 36% | 1008.3 hPa | 0 mm | - | 21 W/m² | - |
| 1778022811 | 24.44° C | 35% | 1008.1 hPa | 0 mm | - | 25 W/m² | - |
| 1778022212 | 25° C | 34% | 1007.9 hPa | 0 mm | - | 33 W/m² | - |
| 1778021610 | 25° C | 33% | 1007.9 hPa | 0 mm | - | 49 W/m² | - |
| 1778021012 | 25.56° C | 34% | 1007.6 hPa | 0 mm | - | 63 W/m² | - |
| 1778020415 | 25.56° C | 34% | 1007.4 hPa | 0 mm | - | 72 W/m² | - |
| 1778019917 | 25.56° C | 34% | 1007.1 hPa | 0 mm | - | 104 W/m² | - |
| 1778019211 | 26.11° C | 32% | 1006.8 hPa | 0 mm | - | 139 W/m² | - |
| 1778018610 | 26.11° C | 31% | 1006.7 hPa | 0 mm | - | 111 W/m² | - |
| 1778018011 | 26.67° C | 30% | 1006.8 hPa | 0 mm | - | 95 W/m² | - |
| 1778017410 | 26.67° C | 31% | 1006.7 hPa | 0 mm | - | 105 W/m² | - |
| 1778016811 | 27.22° C | 29% | 1006.8 hPa | 0 mm | - | 185 W/m² | - |
| 1778016210 | 27.22° C | 29% | 1006.6 hPa | 0 mm | - | 174 W/m² | - |
| 1778015611 | 27.78° C | 28% | 1006.4 hPa | 0 mm | - | 123 W/m² | - |
| 1778015011 | 27.78° C | 28% | 1006.3 hPa | 0 mm | - | 132 W/m² | - |
| 1778014412 | 27.78° C | 28% | 1006.3 hPa | 0 mm | - | 149 W/m² | - |
| 1778013810 | 27.78° C | 28% | 1006.3 hPa | 0 mm | - | 200 W/m² | - |
| 1778013210 | 27.78° C | 28% | 1006.1 hPa | 0 mm | - | 181 W/m² | - |
* Rain latest hour (hover to see other rain measurements)
** Current wind speed in m/s (hover to see current wind gust speed)